Previsão horária em Juazeiro do Norte

Hoje, 24 Junho, Quinta-feira

Tempo Temperatura Precipitação Vento Pressão Humidade
00:00 +23°C° 0.1 mm 2 m/s 728 mmHg 83%
01:00 +23°C° 0.1 mm 2 m/s 728 mmHg 87%
02:00 +21°C° 0.1 mm 2 m/s 728 mmHg 90%
03:00 +21°C° 0.1 mm 2 m/s 728 mmHg 94%
04:00 +21°C° 0 mm 2 m/s 728 mmHg 94%
05:00 +21°C° 0 mm 2 m/s 728 mmHg 94%
06:00 +22°C° 0 mm 1 m/s 729 mmHg 94%
07:00 +23°C° 0 mm 2 m/s 729 mmHg 90%
08:00 +24°C° 0 mm 2 m/s 730 mmHg 86%
09:00 +25°C° 0 mm 3 m/s 730 mmHg 82%
10:00 +27°C° 0.1 mm 3 m/s 729 mmHg 71%
11:00 +29°C° 0.1 mm 3 m/s 729 mmHg 61%
12:00 +32°C° 0.1 mm 4 m/s 729 mmHg 50%
13:00 +32°C° 0 mm 4 m/s 728 mmHg 48%
14:00 +31°C° 0 mm 3 m/s 727 mmHg 46%
15:00 +31°C° 0 mm 3 m/s 726 mmHg 43%
16:00 +30°C° 0 mm 3 m/s 727 mmHg 46%
17:00 +29°C° 0 mm 2 m/s 727 mmHg 48%
18:00 +28°C° 0 mm 2 m/s 727 mmHg 51%
19:00 +27°C° 0 mm 2 m/s 728 mmHg 57%
20:00 +26°C° 0 mm 2 m/s 728 mmHg 63%
21:00 +25°C° 0 mm 2 m/s 729 mmHg 69%
22:00 +25°C° 0 mm 2 m/s 729 mmHg 73%
23:00 +24°C° 0 mm 3 m/s 729 mmHg 78%

Amanhã, 25 Junho, Sexta-feira

Tempo Temperatura Precipitação Vento Pressão Humidade
00:00 +24°C° 0 mm 3 m/s 729 mmHg 82%
01:00 +22°C° 0 mm 3 m/s 728 mmHg 83%
02:00 +22°C° 0 mm 3 m/s 728 mmHg 84%
03:00 +21°C° 0 mm 3 m/s 728 mmHg 86%
04:00 +22°C° 0 mm 3 m/s 728 mmHg 84%
05:00 +22°C° 0 mm 3 m/s 728 mmHg 82%
06:00 +22°C° 0 mm 3 m/s 729 mmHg 81%
07:00 +25°C° 0 mm 3 m/s 729 mmHg 72%
08:00 +26°C° 0 mm 4 m/s 730 mmHg 64%
09:00 +28°C° 0 mm 4 m/s 730 mmHg 56%
10:00 +30°C° 0 mm 4 m/s 729 mmHg 49%
11:00 +33°C° 0 mm 4 m/s 729 mmHg 43%
12:00 +34°C° 0 mm 4 m/s 728 mmHg 36%
13:00 +35°C° 0 mm 4 m/s 727 mmHg 35%
14:00 +35°C° 0 mm 4 m/s 727 mmHg 34%
15:00 +35°C° 0 mm 4 m/s 726 mmHg 33%
16:00 +33°C° 0 mm 4 m/s 726 mmHg 37%
17:00 +32°C° 0 mm 4 m/s 727 mmHg 41%
18:00 +29°C° 0 mm 3 m/s 727 mmHg 45%
19:00 +28°C° 0 mm 4 m/s 727 mmHg 51%
20:00 +27°C° 0 mm 4 m/s 727 mmHg 57%
21:00 +26°C° 0 mm 4 m/s 728 mmHg 63%
22:00 +25°C° 0 mm 4 m/s 728 mmHg 70%
23:00 +24°C° 0 mm 3 m/s 728 mmHg 76%

Depois de amanhã, 26 Junho, Sábado

Tempo Temperatura Precipitação Vento Pressão Humidade
00:00 +22°C° 0 mm 3 m/s 728 mmHg 82%
01:00 +22°C° 0 mm 3 m/s 728 mmHg 83%
02:00 +21°C° 0 mm 3 m/s 727 mmHg 85%
03:00 +21°C° 0 mm 3 m/s 727 mmHg 86%
04:00 +20°C° 0 mm 3 m/s 727 mmHg 87%
05:00 +19°C° 0 mm 2 m/s 728 mmHg 88%
06:00 +19°C° 0 mm 2 m/s 728 mmHg 90%
07:00 +21°C° 0 mm 3 m/s 728 mmHg 76%
08:00 +25°C° 0 mm 3 m/s 729 mmHg 62%
09:00 +27°C° 0 mm 4 m/s 729 mmHg 48%
10:00 +29°C° 0 mm 4 m/s 729 mmHg 42%
11:00 +32°C° 0 mm 4 m/s 728 mmHg 36%
12:00 +34°C° 0 mm 4 m/s 728 mmHg 30%
13:00 +34°C° 0 mm 4 m/s 727 mmHg 29%
14:00 +35°C° 0 mm 4 m/s 726 mmHg 27%
15:00 +35°C° 0 mm 4 m/s 726 mmHg 26%
16:00 +33°C° 0 mm 3 m/s 726 mmHg 30%
17:00 +30°C° 0 mm 3 m/s 726 mmHg 35%
18:00 +28°C° 0 mm 2 m/s 726 mmHg 40%
19:00 +27°C° 0 mm 3 m/s 727 mmHg 46%
20:00 +26°C° 0 mm 3 m/s 727 mmHg 52%
21:00 +25°C° 0 mm 4 m/s 728 mmHg 58%
22:00 +23°C° 0 mm 4 m/s 728 mmHg 62%
23:00 +23°C° 0 mm 4 m/s 728 mmHg 67%

27 Junho, Domingo

Tempo Temperatura Precipitação Vento Pressão Humidade
00:00 +22°C° 0 mm 4 m/s 728 mmHg 71%
01:00 +22°C° 0 mm 4 m/s 727 mmHg 76%
02:00 +21°C° 0 mm 4 m/s 727 mmHg 80%
03:00 +21°C° 0 mm 4 m/s 727 mmHg 84%
04:00 +21°C° 0 mm 4 m/s 727 mmHg 82%
05:00 +21°C° 0 mm 4 m/s 728 mmHg 80%
06:00 +22°C° 0 mm 4 m/s 728 mmHg 77%
07:00 +22°C° 0 mm 4 m/s 729 mmHg 74%
08:00 +23°C° 0 mm 4 m/s 729 mmHg 70%
09:00 +25°C° 0 mm 5 m/s 729 mmHg 67%
10:00 +28°C° 0 mm 5 m/s 729 mmHg 56%
11:00 +30°C° 0 mm 4 m/s 728 mmHg 46%
12:00 +34°C° 0 mm 4 m/s 728 mmHg 36%
13:00 +34°C° 0 mm 4 m/s 727 mmHg 34%
14:00 +34°C° 0 mm 4 m/s 727 mmHg 32%
15:00 +35°C° 0 mm 4 m/s 726 mmHg 30%
16:00 +33°C° 0 mm 4 m/s 726 mmHg 34%
17:00 +30°C° 0 mm 3 m/s 727 mmHg 38%
18:00 +28°C° 0 mm 2 m/s 727 mmHg 42%
19:00 +27°C° 0 mm 3 m/s 727 mmHg 48%
20:00 +26°C° 0 mm 3 m/s 728 mmHg 53%
21:00 +25°C° 0 mm 4 m/s 728 mmHg 59%
22:00 +23°C° 0 mm 4 m/s 728 mmHg 60%
23:00 +23°C° 0 mm 4 m/s 728 mmHg 61%

28 Junho, Segunda-feira

Tempo Temperatura Precipitação Vento Pressão Humidade
00:00 +22°C° 0 mm 4 m/s 728 mmHg 62%
01:00 +21°C° 0 mm 4 m/s 728 mmHg 67%
02:00 +21°C° 0 mm 4 m/s 728 mmHg 73%
03:00 +20°C° 0 mm 4 m/s 727 mmHg 78%
04:00 +20°C° 0 mm 3 m/s 728 mmHg 82%
05:00 +19°C° 0 mm 3 m/s 728 mmHg 86%
06:00 +19°C° 0 mm 3 m/s 729 mmHg 90%
07:00 +21°C° 0 mm 3 m/s 729 mmHg 78%
08:00 +23°C° 0 mm 4 m/s 730 mmHg 67%
09:00 +27°C° 0 mm 5 m/s 730 mmHg 55%
10:00 +29°C° 0 mm 4 m/s 730 mmHg 47%
11:00 +32°C° 0 mm 4 m/s 729 mmHg 38%
12:00 +34°C° 0 mm 4 m/s 729 mmHg 30%
13:00 +35°C° 0 mm 4 m/s 728 mmHg 28%
14:00 +35°C° 0 mm 4 m/s 727 mmHg 26%
15:00 +35°C° 0 mm 4 m/s 727 mmHg 24%
16:00 +33°C° 0 mm 3 m/s 727 mmHg 28%
17:00 +30°C° 0 mm 3 m/s 727 mmHg 32%
18:00 +27°C° 0 mm 2 m/s 728 mmHg 36%
19:00 +26°C° 0 mm 2 m/s 728 mmHg 46%
20:00 +25°C° 0 mm 3 m/s 729 mmHg 56%
21:00 +24°C° 0 mm 3 m/s 729 mmHg 66%
22:00 +22°C° 0 mm 3 m/s 729 mmHg 72%
23:00 +22°C° 0 mm 3 m/s 729 mmHg 79%

29 Junho, Terça-feira

Tempo Temperatura Precipitação Vento Pressão Humidade
00:00 +21°C° 0 mm 4 m/s 729 mmHg 85%
01:00 +20°C° 0 mm 3 m/s 729 mmHg 87%
02:00 +20°C° 0 mm 3 m/s 729 mmHg 88%
03:00 +19°C° 0 mm 2 m/s 729 mmHg 90%
04:00 +19°C° 0 mm 2 m/s 729 mmHg 92%
05:00 +18°C° 0 mm 2 m/s 729 mmHg 93%
06:00 +18°C° 0 mm 2 m/s 729 mmHg 95%
07:00 +21°C° 0 mm 3 m/s 730 mmHg 80%
08:00 +24°C° 0 mm 3 m/s 730 mmHg 66%
09:00 +27°C° 0 mm 4 m/s 731 mmHg 51%
10:00 +29°C° 0 mm 4 m/s 730 mmHg 45%
11:00 +32°C° 0 mm 4 m/s 730 mmHg 39%
12:00 +34°C° 0 mm 4 m/s 729 mmHg 33%
13:00 +34°C° 0 mm 3 m/s 729 mmHg 31%
14:00 +35°C° 0 mm 3 m/s 728 mmHg 29%
15:00 +35°C° 0 mm 3 m/s 728 mmHg 27%
16:00 +33°C° 0 mm 3 m/s 728 mmHg 31%
17:00 +29°C° 0 mm 2 m/s 728 mmHg 36%
18:00 +27°C° 0 mm 2 m/s 728 mmHg 40%
19:00 +26°C° 0 mm 2 m/s 728 mmHg 45%
20:00 +26°C° 0 mm 3 m/s 729 mmHg 51%
21:00 +25°C° 0 mm 3 m/s 729 mmHg 56%
22:00 +25°C° 0 mm 3 m/s 729 mmHg 60%
23:00 +24°C° 0 mm 3 m/s 729 mmHg 64%
Mostrar mais

Necessitamos do seu Consentimento

A Meteoprog e os seus Fornecedores de Serviços podem armazenar e aceder a dados pessoais como cookies, identificadores do dispositivo ou outras tecnologias semelhantes existentes no seu dispositivo e processar estes dados para personalizar conteúdos e anúncios, assim como funcionalidades nas redes sociais e análise de tráfego.

  • Armazenar e/ou aceder a informações no seu dispositivo

    Os cookies, identificadores do dispositivo ou outras informações podem ser armazenados ou acedidos no seu dispositivo, para os fins acima indicados.

  • Anúncios e conteúdos personalizados, medição de anúncios e conteúdos, dados sobre o público-alvo e desenvolvimento de produtos

    Os anúncios e os conteúdos podem ser personalizados com base num perfil. Podem ser adicionados dados adicionais para uma maior personalização dos anúncios e dos conteúdos. A eficácia dos anúncios e dos conteúdos pode ser medida. Podem ser obtidas informações sobre o público que visualizou os anúncios e os conteúdos. Estes dados podem ser usados para desenvolver ou melhorar sistemas, softwares ou a experiência do utilizador.

Ao clicar em "Eu concordo”, permitirá o uso de cookies, identificadores do dispositivo e web beacons mencionados ou outras tecnologias semelhantes. As configurações do navegador do seu dispositivo podem ser alteradas.

Para certos fins, podem ser invocados interesses legítimos ao invés de consentimento. Pode ler mais informação sobre este assunto na nossa Política de Privacidade e Cookies.